AirNav   ProFlight Series 2 Aviation Headset
 
 858 users online  

MA71 Davna Corp Heliport
Millis, Massachusetts, USA

GOING TO MILLIS?


FAA INFORMATION EFFECTIVE 16 JULY 2020

Location

FAA Identifier: MA71
Lat/Long: 42-09-18.3500N 071-23-10.2110W
42-09.305833N 071-23.170183W
42.1550972,-71.3861697
(estimated)
Elevation: 145 ft. / 44 m (estimated)
Variation: 15W (1985)
From city: 1 mile W of MILLIS, MA
Time zone: UTC -4 (UTC -5 during Standard Time)
Zip code: 02054

Heliport Operations

Heliport use: Private use. Permission required prior to landing
Activation date: 10/1989
Control tower: no
ARTCC: BOSTON CENTER
FSS: BRIDGEPORT FLIGHT SERVICE STATION
Attendance: UNATNDD
Wind indicator: yes
Segmented circle: no

Heliport Communications

WX ASOS at OWD (10 nm E): 119.95 (781-762-4314)
WX AWOS-3PT at SFZ (15 nm S): 120.775 (401-334-0324)
WX ASOS at BED (19 nm N): 124.6 (781-274-9733)

Nearby radio navigation aids

VOR radial/distance  VOR name  Freq  Var
BOSr251/21.4BOSTON VOR/DME112.7016W
PUTr074/23.7PUTNAM VOR/DME117.4014W
PVDr018/25.9PROVIDENCE VOR/DME115.6014W
LWMr215/37.4LAWRENCE VOR/DME112.5015W
GDMr142/37.9GARDNER VOR/DME110.6014W

 
NDB name  Hdg/Dist  Freq  Var  ID
STOGE295/11.739715WOW --- .--

Heliport Services

Runway Information

Helipad H1

Dimensions: 100 x 100 ft. / 30 x 30 m
Surface: turf
Operational restrictions: NO OPERATIONS SOUTH OF ROUTE 109.
Traffic pattern: leftleft

Heliport Ownership and Management from official FAA records

Ownership: Privately-owned
Owner: DAVNA CORPORATION
1575 MAIN ST
MILLIS, MA 02054
Manager: JOEL ROSENFELD
1575 MAIN ST
MILLIS, MA 02054
Phone 508-376-8300

Additional Remarks

FOR CD CTC BOSTON APCH AT 603-594-5551.

Instrument Procedures

There are no published instrument procedures at MA71.

Some nearby airports with instrument procedures:

1B6 - Hopedale Industrial Park Airport (6 nm SW)
KOWD - Norwood Memorial Airport (10 nm E)
1B9 - Mansfield Municipal Airport (12 nm SE)
KSFZ - North Central State Airport (15 nm S)
6B6 - Minute Man Air Field (19 nm N)
KBED - Laurence G Hanscom Field Airport (19 nm N)
 
Loc | Ops | Rwys | IFR | FBO | Links
Com | Nav | Svcs | Stats | Notes
Area around MA71 (Davna Corp Heliport)
 
Road maps at: MapQuest Bing Google
 
Aerial photo
No photo
 
Sectional chart

 
Airport distance calculator
Flying to Davna Corp Heliport? Find the distance to fly.

From to MA71

Sunrise and sunset
Times for 11-Aug-2020
 Local
(UTC-4)
 Zulu
(UTC)
Morning civil twilight05:2009:20
Sunrise05:5109:51
Sunset19:5023:50
Evening civil twilight20:2100:21

Current date and time
Zulu (UTC)  12-Aug-2020 03:39:46
Local (UTC-4)  11-Aug-2020 23:39:46
 
METAR
KOWD 
10nm E 
120253Z AUTO 18005KT 10SM CLR 25/21 A2995 RMK AO2 SLP141 T02500211 50009
KMQE 
13nm E 
120251Z AUTO 20013KT 23/21 A2996 RMK AO1 SLP150 T02330211 50006
KSFZ 
15nm S 
120256Z AUTO 21005KT 10SM BKN013 24/23 A2998 RMK AO2 SLP097 T02390228 51003
KBED 
19nm N 
120251Z AUTO 21007KT 10SM CLR 26/21 A2993 RMK AO2 SLP143 T02560206 51010
TAF
KBED 
19nm N 
112027Z 1120/1218 21008KT P6SM SCT050 FM121300 24005KT P6SM VCSH BKN035
KBOS 
21nm NE 
112026Z 1120/1224 21010KT P6SM FEW050 FM120600 22007KT P6SM SCT100 FM121600 22007KT P6SM -SHRA BKN040
NOTAMs
Click for the latest NOTAMs
NOTAMs are issued by the DoD/FAA and will open in a separate window not controlled by AirNav.

 

 
 

Would you like to see your business listed on this page?

 If your business provides an interesting product or service to pilots, flight crews, aircraft, or users of the Davna Corp Heliport, you should consider listing it here.  To start the listing process, click on the button below
 
Add a business
 

Other Pages about Davna Corp Heliport

Update a link
 
Copyright © AirNav, LLC. All rights reserved. Privacy Policy  Contact